User: anonymous   Login
Location: Unspecified
(0.0000°N, 0.0000°E)
Time: 11:59:09
(UTC+02:00)
Language:

Cosmos 1733 Rocket - Orbit

View from above orbital plane
View from above orbital plane
View from above satellite
View from above satellite

Ground track
Ground track

The orbit data is extracted from the following two-line orbital elements,

1 16612U 86018B   16182.77214289  .00000069  00000-0  54472-5 0  9999
2 16612  82.5175 266.1143 0016537 229.6254 250.3384 14.84088201539335
Epoch (UTC): 30 June 2016 18:31:53
Eccentricity: 0.0016537
inclination: 82.5175°
perigee height: 605 km
apogee height: 628 km
right ascension of ascending node: 266.1143°
argument of perigee: 229.6254°
revolutions per day: 14.84088201
mean anomaly at epoch: 250.3384°
orbit number at epoch: 53933

The dashed part of the orbit path shows where the satellite is in the earth's shadow,  

DLR